User: anonymous
Location: Unspecified
(0.0000°N, 0.0000°E)
Time: 02:29:26
(UTC+02:00)
Language:

Gurwin Techsat 1B - Orbit

View from above orbital plane
View from above orbital plane
View from above satellite
View from above satellite

Ground track
Ground track

The orbit data is extracted from the following two-line orbital elements,

1 25397U 98043D   14292.93428222  .00000171  00000-0  93867-4 0  4799
2 25397 098.4860 246.3641 0000567 016.2333 073.6813 14.23471478845618
Epoch (UTC): 19 October 2014 22:25:21
Eccentricity: 0.0000567
inclination: 98.4860°
perigee height: 813 km
apogee height: 814 km
right ascension of ascending node: 246.3641°
argument of perigee: 16.2333°
revolutions per day: 14.23471478
mean anomaly at epoch: 73.6813°
orbit number at epoch: 84561

The dashed part of the orbit path shows where the satellite is in the earth's shadow,  

DLR